Location: Munderkingen
(48.2395°N, 9.6433°E)
Time: 13:57:27
(UTC+02:00)

ISS - Pass Details

Date: 11 February 2018
Orbit: 403 x 408 km, 51.6° (Epoch: 22 September)

Event Time Altitude Azimuth Distance (km) Brightness Sun altitude
Rises 19:27:44 0° 283° (WNW) 2,322 1.5 -18.9°
Reaches altitude 10° 19:30:38 10° 254° (WSW) 1,460 0.1 -19.4°
Maximum altitude 19:32:15 13° 224° (SW) 1,281 -0.8 -19.7°
Drops below altitude 10° 19:33:54 10° 194° (SSW) 1,459 -0.9 -19.9°
Enters shadow 19:35:00 - 180° (S) 1,738 -0.6 -20.1°
